Regional Weather Roundup
Issued by NWS

Home | Current Version | Previous Version | Text Only | Print | Product List | Glossary Off
Versions: 1 2 3 4 5 6 7 8 9 10 11 12 13 14 15 16 17 18 19 20 21 22 23 24 25 26 27 28 29 30 31 32 33 34 35 36 37 38 39 40 41 42 43 44 45 46 47 48 49 50

000
ASUS45 KCYS 010010
RWRWY

WYOMING REGIONAL WEATHER ROUNDUP
NATIONAL WEATHER SERVICE CHEYENNE WY
600 PM MDT FRI JUL 31 2015

NOTE:  "FAIR" INDICATES FEW OR NO CLOUDS BELOW 12,000 FEET
WITH NO SIGNIFICANT WEATHER AND/OR OBSTRUCTIONS TO VISIBILITY.

WYZ001-010100-
YELLOWSTONE NATIONAL PARK

CITY           SKY/WX    TMP DP  RH WIND       PRES   REMARKS
LK YELLOWSTONE   N/A     74  29  19 CALM      30.44F
6HR MIN TEMP:  64; 6HR MAX TEMP:  77;

W YELLOWSTONE  NOT AVBL

$$
WYZ002>013-054>058-071-098>099-010100-
NORTHERN WYOMING

CITY           SKY/WX    TMP DP  RH WIND       PRES   REMARKS
JACKSON        SUNNY     81  34  18 SW9       30.31F
CODY           FAIR      84  43  23 N9        30.18F
GREYBULL       FAIR      95  26   8 CALM      30.07F
6HR MIN TEMP:  85; 6HR MAX TEMP:  96;

WORLAND        FAIR      92  32  12 NE9       30.09F
6HR MIN TEMP:  85; 6HR MAX TEMP:  96;

SHERIDAN       FAIR      93  34  12 CALM      30.11F
6HR MIN TEMP:  87; 6HR MAX TEMP:  95;

BUFFALO        FAIR      90  37  15 N9        30.18F
6HR MIN TEMP:  85; 6HR MAX TEMP:  92;

GILLETTE       FAIR      92  41  17 NE13      30.13F
6HR MIN TEMP:  86; 6HR MAX TEMP:  93;

HULETT         FAIR      86  46  25 E8G16     30.17F
NEWCASTLE      FAIR      86  45  23 MISG      30.14F

$$
WYZ014>020-022>026-101>103-010100-
CENTRAL WYOMING

CITY           SKY/WX    TMP DP  RH WIND       PRES   REMARKS
BIG PINEY      FAIR      84  27  12 NW10G17   30.33F
6HR MIN TEMP:  75; 6HR MAX TEMP:  86;

PINEDALE       FAIR      81  23  12 N12       30.35S
DUBOIS         FAIR      81  27  13 N8G18     30.33S
LANDER         FAIR      87  30  13 NW7       30.16F
6HR MIN TEMP:  80; 6HR MAX TEMP:  92;

RIVERTON       FAIR      90  27  10 N12       30.18F
6HR MIN TEMP:  80; 6HR MAX TEMP:  92;

CASPER         FAIR      91  25   9 N9        30.17F
6HR MIN TEMP:  85; 6HR MAX TEMP:  93;

DOUGLAS        FAIR      90  32  12 NW3       30.17F
6HR MIN TEMP:  87; 6HR MAX TEMP:  95;


$$
WYZ021-027>030-104>119-010100-
SOUTHERN WYOMING

CITY           SKY/WX    TMP DP  RH WIND       PRES   REMARKS
EVANSTON       FAIR      83  24  11 N7G22     30.34F
6HR MIN TEMP:  79; 6HR MAX TEMP:  86;

KEMMERER       FAIR     N/A N/A N/A W8        30.36F
FORT BRIDGER   CLEAR     86  18   8 N10G20    30.35F
ROCK SPRINGS   FAIR      84  18   8 W8        30.28F
6HR MIN TEMP:  76; 6HR MAX TEMP:  86;

DIXON          FAIR      90  25   9 W7        30.27F
RAWLINS        FAIR      87  20   8 N12G18    30.29F
6HR MIN TEMP:  82; 6HR MAX TEMP:  89;

SARATOGA       FAIR      86  23  10 N8        30.31F
LARAMIE        LGT RAIN  72  54  53 S3        30.35S
6HR MIN TEMP:  70; 6HR MAX TEMP:  82; 6HR PCP:  0.02;

CHEYENNE       FAIR      80  48  32 SE14      30.29F
6HR MIN TEMP:  67; 6HR MAX TEMP:  85; 6HR PCP:  0.04;

TORRINGTON     FAIR      88  47  24 S10       30.13F
6HR MIN TEMP:  84; 6HR MAX TEMP:  94;

PINE BLUFFS    FAIR      84  45  24 E8        30.23F

$$


USA.gov is the U.S. government's official web portal to all federal, state and local government web resources and services.